Time,TemperatureF,DewpointF,PressureIn,WindDirection,WindDirectionDegrees,WindSpeedMPH,WindSpeedGustMPH,Humidity,HourlyPrecipIn,Conditions,Clouds,dailyrainin,SolarRadiationWatts/m^2,SoftwareType,DateUTC
2013-04-29 00:03:00,54.6,38.0,29.71,South,170,3.0,5.0,54,0.00,,,0.00,0,weatherlink.com 1.10,2013-04-29 04:03:00,
2013-04-29 00:18:00,54.4,38.0,29.71,SSW,213,0.0,6.0,55,0.00,,,0.00,0,weatherlink.com 1.10,2013-04-29 04:18:00,
2013-04-29 00:33:00,54.1,39.0,29.71,South,174,4.0,11.0,56,0.00,,,0.00,0,weatherlink.com 1.10,2013-04-29 04:33:00,
2013-04-29 00:48:00,53.9,39.0,29.70,SSW,197,1.0,10.0,57,0.00,,,0.00,0,weatherlink.com 1.10,2013-04-29 04:48:00,
2013-04-29 01:03:00,53.9,39.0,29.70,SSW,210,5.0,7.0,58,0.00,,,0.00,0,weatherlink.com 1.10,2013-04-29 05:03:00,
2013-04-29 01:18:00,53.7,39.0,29.70,SSE,164,5.0,7.0,59,0.00,,,0.00,0,weatherlink.com 1.10,2013-04-29 05:18:00,
2013-04-29 01:34:00,53.5,40.0,29.70,SSE,150,3.0,8.0,60,0.00,,,0.00,0,weatherlink.com 1.10,2013-04-29 05:34:00,
2013-04-29 01:49:00,53.3,40.0,29.69,SSW,203,7.0,9.0,60,0.00,,,0.00,0,weatherlink.com 1.10,2013-04-29 05:49:00,
2013-04-29 02:04:00,53.0,40.0,29.69,SSE,167,4.0,11.0,61,0.00,,,0.00,0,weatherlink.com 1.10,2013-04-29 06:04:00,
2013-04-29 02:19:00,52.6,41.0,29.69,SSW,198,7.0,7.0,66,0.00,,,0.00,0,weatherlink.com 1.10,2013-04-29 06:19:00,
2013-04-29 02:34:00,51.7,42.0,29.69,SSE,166,4.0,5.0,69,0.00,,,0.00,0,weatherlink.com 1.10,2013-04-29 06:34:00,
2013-04-29 02:49:00,51.7,41.0,29.68,SSE,151,2.0,9.0,68,0.00,,,0.00,0,weatherlink.com 1.10,2013-04-29 06:49:00,
2013-04-29 03:04:00,51.9,42.0,29.69,SSW,208,3.0,7.0,68,0.00,,,0.00,0,weatherlink.com 1.10,2013-04-29 07:04:00,
2013-04-29 03:19:00,51.8,41.0,29.69,South,176,1.0,8.0,68,0.00,,,0.00,0,weatherlink.com 1.10,2013-04-29 07:19:00,
2013-04-29 03:34:00,51.5,41.0,29.70,SSW,198,1.0,5.0,68,0.00,,,0.00,0,weatherlink.com 1.10,2013-04-29 07:34:00,
2013-04-29 03:49:00,51.6,42.0,29.70,SSW,203,2.0,6.0,69,0.00,,,0.00,0,weatherlink.com 1.10,2013-04-29 07:49:00,
2013-04-29 04:04:00,51.7,42.0,29.70,SSW,210,4.0,6.0,69,0.00,,,0.00,0,weatherlink.com 1.10,2013-04-29 08:04:00,
2013-04-29 04:19:00,51.5,42.0,29.70,South,191,1.0,5.0,70,0.00,,,0.00,0,weatherlink.com 1.10,2013-04-29 08:19:00,
2013-04-29 04:34:00,51.2,42.0,29.71,SSE,157,3.0,5.0,71,0.00,,,0.00,0,weatherlink.com 1.10,2013-04-29 08:34:00,
2013-04-29 04:49:00,51.2,42.0,29.71,South,186,1.0,5.0,72,0.00,,,0.00,0,weatherlink.com 1.10,2013-04-29 08:49:00,
2013-04-29 05:04:00,51.1,44.0,29.71,South,190,2.0,7.0,76,0.00,,,0.00,0,weatherlink.com 1.10,2013-04-29 09:04:00,
2013-04-29 05:19:00,50.1,45.0,29.71,SSW,197,1.0,4.0,83,0.01,,,0.01,0,weatherlink.com 1.10,2013-04-29 09:19:00,
2013-04-29 05:34:00,49.2,46.0,29.71,SSE,157,2.0,4.0,87,0.02,,,0.02,0,weatherlink.com 1.10,2013-04-29 09:34:00,
2013-04-29 05:49:00,48.8,46.0,29.71,SSW,202,2.0,3.0,90,0.02,,,0.02,0,weatherlink.com 1.10,2013-04-29 09:49:00,
2013-04-29 06:04:00,48.8,47.0,29.71,South,169,0.0,4.0,92,0.04,,,0.04,0,weatherlink.com 1.10,2013-04-29 10:04:00,
2013-04-29 06:19:00,49.0,47.0,29.71,South,173,0.0,0.0,93,0.04,,,0.05,0,weatherlink.com 1.10,2013-04-29 10:19:00,
2013-04-29 06:34:00,49.0,47.0,29.70,South,173,0.0,2.0,93,0.05,,,0.07,0,weatherlink.com 1.10,2013-04-29 10:34:00,
2013-04-29 06:49:00,48.7,47.0,29.70,South,173,0.0,2.0,93,0.05,,,0.07,0,weatherlink.com 1.10,2013-04-29 10:49:00,
2013-04-29 07:04:00,48.3,47.0,29.71,South,173,0.0,2.0,94,0.03,,,0.07,0,weatherlink.com 1.10,2013-04-29 11:04:00,
2013-04-29 07:19:00,48.0,46.0,29.71,South,173,0.0,2.0,94,0.02,,,0.07,5,weatherlink.com 1.10,2013-04-29 11:19:00,
2013-04-29 07:34:00,48.1,47.0,29.72,South,173,0.0,1.0,95,0.00,,,0.07,7,weatherlink.com 1.10,2013-04-29 11:34:00,
2013-04-29 07:49:00,47.8,46.0,29.72,South,173,2.0,3.0,94,0.00,,,0.07,5,weatherlink.com 1.10,2013-04-29 11:49:00,
2013-04-29 08:04:00,48.4,47.0,29.73,South,173,3.0,3.0,96,0.00,,,0.07,11,weatherlink.com 1.10,2013-04-29 12:04:00,
2013-04-29 08:19:00,48.6,47.0,29.73,South,185,0.0,2.0,95,0.00,,,0.07,11,weatherlink.com 1.10,2013-04-29 12:19:00,
2013-04-29 08:34:00,48.7,47.0,29.74,South,186,2.0,3.0,95,0.00,,,0.07,12,weatherlink.com 1.10,2013-04-29 12:34:00,
2013-04-29 08:49:00,48.8,48.0,29.74,SSE,158,1.0,5.0,95,0.00,,,0.07,23,weatherlink.com 1.10,2013-04-29 12:49:00,
2013-04-29 09:04:00,49.1,48.0,29.73,SSE,165,1.0,5.0,96,0.00,,,0.07,116,weatherlink.com 1.10,2013-04-29 13:04:00,
2013-04-29 09:20:00,50.0,49.0,29.73,SSE,157,1.0,5.0,96,0.00,,,0.07,183,weatherlink.com 1.10,2013-04-29 13:20:00,
2013-04-29 09:35:00,51.3,50.0,29.73,SSE,157,2.0,3.0,96,0.00,,,0.07,315,weatherlink.com 1.10,2013-04-29 13:35:00,
2013-04-29 09:50:00,53.4,52.0,29.73,SSE,157,0.0,4.0,95,0.00,,,0.07,394,weatherlink.com 1.10,2013-04-29 13:50:00,
2013-04-29 10:05:00,56.0,54.0,29.73,SE,146,2.0,4.0,91,0.00,,,0.07,445,weatherlink.com 1.10,2013-04-29 14:05:00,
2013-04-29 10:20:00,57.4,54.0,29.73,South,188,2.0,5.0,88,0.00,,,0.07,327,weatherlink.com 1.10,2013-04-29 14:20:00,
2013-04-29 10:35:00,58.3,54.0,29.73,South,172,2.0,4.0,86,0.00,,,0.07,350,weatherlink.com 1.10,2013-04-29 14:35:00,
2013-04-29 10:50:00,59.9,55.0,29.73,South,172,2.0,3.0,84,0.00,,,0.07,476,weatherlink.com 1.10,2013-04-29 14:50:00,
2013-04-29 11:05:00,61.2,55.0,29.72,South,177,0.0,4.0,80,0.00,,,0.07,329,weatherlink.com 1.10,2013-04-29 15:05:00,
2013-04-29 11:20:00,62.4,54.0,29.73,South,177,0.0,3.0,74,0.00,,,0.07,694,weatherlink.com 1.10,2013-04-29 15:20:00,
2013-04-29 11:35:00,63.7,55.0,29.73,South,177,1.0,3.0,73,0.00,,,0.07,281,weatherlink.com 1.10,2013-04-29 15:35:00,
2013-04-29 11:50:00,64.1,55.0,29.73,NE,41,2.0,6.0,72,0.00,,,0.07,954,weatherlink.com 1.10,2013-04-29 15:50:00,
2013-04-29 12:05:00,63.8,55.0,29.73,NNE,22,2.0,6.0,72,0.00,,,0.07,274,weatherlink.com 1.10,2013-04-29 16:05:00,
2013-04-29 12:20:00,63.9,54.0,29.73,NNE,24,6.0,6.0,71,0.00,,,0.07,1072,weatherlink.com 1.10,2013-04-29 16:20:00,
2013-04-29 12:35:00,64.2,53.0,29.73,NE,37,5.0,6.0,68,0.00,,,0.07,251,weatherlink.com 1.10,2013-04-29 16:35:00,
2013-04-29 12:50:00,63.0,53.0,29.73,NNE,23,1.0,6.0,70,0.00,,,0.07,417,weatherlink.com 1.10,2013-04-29 16:50:00,
2013-04-29 13:05:00,63.7,53.0,29.73,NNE,16,4.0,9.0,68,0.00,,,0.07,884,weatherlink.com 1.10,2013-04-29 17:05:00,
2013-04-29 13:20:00,64.1,53.0,29.73,NNW,342,4.0,6.0,67,0.00,,,0.07,874,weatherlink.com 1.10,2013-04-29 17:20:00,
2013-04-29 13:35:00,64.1,52.0,29.72,NNE,19,1.0,7.0,66,0.00,,,0.07,923,weatherlink.com 1.10,2013-04-29 17:35:00,
2013-04-29 13:50:00,62.9,53.0,29.72,NNE,32,4.0,7.0,69,0.00,,,0.07,759,weatherlink.com 1.10,2013-04-29 17:50:00,
2013-04-29 14:05:00,60.9,52.0,29.72,NE,38,4.0,7.0,73,0.00,,,0.07,1004,weatherlink.com 1.10,2013-04-29 18:05:00,
2013-04-29 14:20:00,61.3,52.0,29.72,North,5,2.0,9.0,72,0.00,,,0.07,863,weatherlink.com 1.10,2013-04-29 18:20:00,
2013-04-29 14:35:00,61.9,53.0,29.72,ENE,71,5.0,6.0,72,0.00,,,0.07,849,weatherlink.com 1.10,2013-04-29 18:35:00,
2013-04-29 14:50:00,62.3,53.0,29.72,North,350,2.0,6.0,72,0.00,,,0.07,844,weatherlink.com 1.10,2013-04-29 18:50:00,
2013-04-29 15:05:00,62.5,53.0,29.72,North,11,1.0,5.0,71,0.00,,,0.07,831,weatherlink.com 1.10,2013-04-29 19:05:00,
2013-04-29 15:20:00,62.7,53.0,29.71,NNE,17,3.0,5.0,70,0.00,,,0.07,802,weatherlink.com 1.10,2013-04-29 19:20:00,
2013-04-29 15:35:00,62.0,52.0,29.71,NE,55,1.0,7.0,71,0.00,,,0.07,766,weatherlink.com 1.10,2013-04-29 19:35:00,
2013-04-29 15:50:00,62.7,53.0,29.70,NNE,32,1.0,4.0,71,0.00,,,0.07,738,weatherlink.com 1.10,2013-04-29 19:50:00,
2013-04-29 16:05:00,63.9,53.0,29.70,ENE,67,3.0,5.0,68,0.00,,,0.07,710,weatherlink.com 1.10,2013-04-29 20:05:00,
2013-04-29 16:20:00,64.1,53.0,29.70,NE,44,1.0,6.0,68,0.00,,,0.07,694,weatherlink.com 1.10,2013-04-29 20:20:00,
2013-04-29 16:35:00,63.9,54.0,29.69,NE,36,2.0,5.0,70,0.00,,,0.07,295,weatherlink.com 1.10,2013-04-29 20:35:00,
2013-04-29 16:50:00,63.6,54.0,29.69,NNE,15,2.0,5.0,70,0.00,,,0.07,578,weatherlink.com 1.10,2013-04-29 20:50:00,
2013-04-29 17:05:00,63.2,53.0,29.69,NE,46,2.0,7.0,70,0.00,,,0.07,566,weatherlink.com 1.10,2013-04-29 21:05:00,
2013-04-29 17:20:00,63.2,53.0,29.67,NNE,24,1.0,4.0,70,0.00,,,0.07,510,weatherlink.com 1.10,2013-04-29 21:20:00,
2013-04-29 17:35:00,63.3,53.0,29.67,NE,36,0.0,5.0,69,0.00,,,0.07,213,weatherlink.com 1.10,2013-04-29 21:35:00,
2013-04-29 17:50:00,62.6,53.0,29.67,NE,53,0.0,4.0,70,0.00,,,0.07,127,weatherlink.com 1.10,2013-04-29 21:50:00,
2013-04-29 18:05:00,61.1,52.0,29.68,NE,53,1.0,4.0,71,0.00,,,0.07,107,weatherlink.com 1.10,2013-04-29 22:05:00,
2013-04-29 18:20:00,60.7,51.0,29.68,NE,52,1.0,5.0,71,0.00,,,0.07,176,weatherlink.com 1.10,2013-04-29 22:20:00,
2013-04-29 18:35:00,60.3,51.0,29.67,NE,46,0.0,4.0,72,0.00,,,0.07,139,weatherlink.com 1.10,2013-04-29 22:35:00,
2013-04-29 18:50:00,60.9,51.0,29.68,NE,46,0.0,2.0,71,0.00,,,0.07,70,weatherlink.com 1.10,2013-04-29 22:50:00,
2013-04-29 19:05:00,61.6,52.0,29.68,NE,46,0.0,2.0,72,0.00,,,0.07,54,weatherlink.com 1.10,2013-04-29 23:05:00,
2013-04-29 19:20:00,65.1,55.0,29.68,SSE,167,5.0,10.0,71,0.00,,,0.07,46,weatherlink.com 1.10,2013-04-29 23:20:00,
2013-04-29 19:35:00,66.4,56.0,29.68,South,171,8.0,9.0,69,0.00,,,0.07,40,weatherlink.com 1.10,2013-04-29 23:35:00,
2013-04-29 19:50:00,66.1,56.0,29.68,SSW,199,2.0,11.0,69,0.00,,,0.07,32,weatherlink.com 1.10,2013-04-29 23:50:00,
2013-04-29 20:05:00,65.3,56.0,29.68,SSE,155,8.0,14.0,71,0.00,,,0.07,25,weatherlink.com 1.10,2013-04-30 00:05:00,
2013-04-29 20:20:00,64.6,55.0,29.69,SSE,165,3.0,9.0,72,0.00,,,0.07,19,weatherlink.com 1.10,2013-04-30 00:20:00,
2013-04-29 20:35:00,63.8,55.0,29.69,SSE,155,0.0,6.0,74,0.00,,,0.07,11,weatherlink.com 1.10,2013-04-30 00:35:00,
2013-04-29 20:51:00,63.0,55.0,29.68,South,177,4.0,8.0,75,0.00,,,0.07,0,weatherlink.com 1.10,2013-04-30 00:51:00,
2013-04-29 21:06:00,62.3,54.0,29.69,South,182,5.0,9.0,75,0.00,,,0.07,0,weatherlink.com 1.10,2013-04-30 01:06:00,
2013-04-29 21:21:00,61.5,54.0,29.70,SSW,206,3.0,7.0,76,0.00,,,0.07,0,weatherlink.com 1.10,2013-04-30 01:21:00,
2013-04-29 21:36:00,60.6,53.0,29.70,SSE,151,7.0,8.0,77,0.00,,,0.07,0,weatherlink.com 1.10,2013-04-30 01:36:00,
2013-04-29 21:51:00,59.9,53.0,29.70,SSE,165,6.0,10.0,78,0.00,,,0.07,0,weatherlink.com 1.10,2013-04-30 01:51:00,
2013-04-29 22:06:00,59.2,53.0,29.70,SSE,167,3.0,9.0,79,0.00,,,0.07,0,weatherlink.com 1.10,2013-04-30 02:06:00,
2013-04-29 22:21:00,58.4,53.0,29.70,South,173,4.0,7.0,81,0.00,,,0.07,0,weatherlink.com 1.10,2013-04-30 02:21:00,
2013-04-29 22:36:00,57.7,52.0,29.70,South,179,1.0,8.0,82,0.00,,,0.07,0,weatherlink.com 1.10,2013-04-30 02:36:00,
2013-04-29 22:51:00,56.8,52.0,29.70,South,172,3.0,8.0,84,0.00,,,0.07,0,weatherlink.com 1.10,2013-04-30 02:51:00,
2013-04-29 23:06:00,56.0,52.0,29.70,SSE,161,3.0,6.0,85,0.00,,,0.07,0,weatherlink.com 1.10,2013-04-30 03:06:00,
2013-04-29 23:21:00,55.3,51.0,29.70,South,191,3.0,5.0,86,0.00,,,0.07,0,weatherlink.com 1.10,2013-04-30 03:21:00,
2013-04-29 23:36:00,54.7,51.0,29.70,SSE,161,0.0,4.0,87,0.00,,,0.07,0,weatherlink.com 1.10,2013-04-30 03:36:00,
2013-04-29 23:51:00,54.0,51.0,29.70,SSE,155,2.0,3.0,88,0.00,,,0.07,0,weatherlink.com 1.10,2013-04-30 03:51:00,